Location: Rehoboth Beach
(38.7438°N, 75.1341°W)
Time: 19:26:43
(UTC-04:00)

Cosmos 1452 Rocket - Visible Passes

Search period start: 22 May 2018 00:00
Search period end: 01 June 2018 00:00
Orbit: 768 x 775 km, 74.1° (Epoch: 22 May)

Date Brightness Start Highest point End Pass type
(mag) Time Alt. Az. Time Alt. Az. Time Alt. Az.
22 May 4.8 02:20:40 10° N 02:25:32 36° ENE 02:28:07 23° ESE visible
22 May 4.5 04:03:11 10° NW 04:07:26 25° W 04:08:23 24° WSW visible
23 May 5.5 01:45:07 10° N 01:49:15 23° ENE 01:51:53 16° E visible
23 May 3.8 03:26:34 10° NNW 03:31:33 43° WSW 03:32:10 41° WSW visible
24 May 6.1 01:10:06 10° NNE 01:12:50 14° NE 01:15:33 10° E visible
24 May 3.4 02:50:17 10° NNW 02:55:34 75° WSW 02:56:04 69° SSW visible
25 May 3.7 02:14:14 10° NNW 02:19:29 65° ENE 02:20:03 60° ESE visible
25 May 5.4 03:58:24 10° WNW 04:00:20 13° W 04:00:20 13° W visible
26 May 4.6 01:38:23 10° N 01:43:19 38° ENE 01:44:06 36° E visible
26 May 4.9 03:21:01 10° NW 03:24:24 23° W 03:24:24 23° W visible
27 May 5.3 01:02:48 10° N 01:07:01 24° ENE 01:08:13 22° E visible
27 May 4.2 02:44:21 10° NNW 02:48:31 38° W 02:48:31 38° W visible
28 May 5.8 00:27:42 10° NNE 00:30:37 15° ENE 00:32:24 13° ENE visible
28 May 3.7 02:08:02 10° NNW 02:12:42 64° WNW 02:12:42 64° WNW visible
29 May 3.7 01:31:58 10° NNW 01:36:55 66° NE 01:36:55 66° NE visible
29 May 5.7 03:16:23 10° WNW 03:17:13 12° WNW 03:17:13 12° WNW visible
30 May 4.4 00:56:06 10° N 01:01:04 40° ENE 01:01:10 40° ENE visible
30 May 5.2 02:38:51 10° NW 02:41:29 20° WNW 02:41:29 20° WNW visible
31 May 5.1 00:20:29 10° N 00:24:48 25° ENE 00:25:28 24° ENE visible
31 May 4.6 02:02:09 10° NW 02:05:47 34° WNW 02:05:47 34° WNW visible
31 May 5.7 23:45:19 10° NNE 23:48:25 15° ENE 23:49:48 14° ENE visible
